• In Hungary
  • List of Countries
  • For 7 days
  • Water Temperature
  • Satellite Maps
  • Weather Map
  • News
  • Weather Widgets
  • user-avatar
    Login

    Hourly Weather Öskemen

    Today, 25 June, Monday

    Time Temperature Precipitation Wind Pressure Humidity
    00:00 +20°C° 0 mm 2 mps 722 mmHg 72%
    01:00 +21°C° 0.1 mm 1 mps 722 mmHg 72%
    02:00 +21°C° 0.1 mm 1 mps 722 mmHg 71%
    03:00 +20°C° 0.1 mm 1 mps 722 mmHg 70%
    04:00 +21°C° 0 mm 1 mps 722 mmHg 70%
    05:00 +21°C° 0 mm 1 mps 722 mmHg 71%
    06:00 +22°C° 0 mm 1 mps 722 mmHg 71%
    07:00 +24°C° 0.1 mm 1 mps 722 mmHg 66%
    08:00 +26°C° 0.1 mm 1 mps 722 mmHg 61%
    09:00 +28°C° 0.1 mm 1 mps 722 mmHg 55%
    10:00 +27°C° 0 mm 2 mps 722 mmHg 57%
    11:00 +27°C° 0 mm 4 mps 723 mmHg 59%
    12:00 +27°C° 0 mm 5 mps 723 mmHg 60%
    13:00 +27°C° 0.1 mm 5 mps 723 mmHg 62%
    14:00 +27°C° 0.1 mm 5 mps 723 mmHg 65%
    15:00 +26°C° 0.1 mm 5 mps 724 mmHg 67%
    16:00 +25°C° 0.1 mm 4 mps 724 mmHg 68%
    17:00 +25°C° 0.1 mm 3 mps 724 mmHg 70%
    18:00 +24°C° 0.1 mm 2 mps 724 mmHg 72%
    19:00 +23°C° 0 mm 2 mps 724 mmHg 75%
    20:00 +21°C° 0 mm 2 mps 725 mmHg 77%
    21:00 +19°C° 0 mm 2 mps 725 mmHg 80%
    22:00 +19°C° 0.1 mm 2 mps 725 mmHg 81%
    23:00 +19°C° 0.1 mm 2 mps 725 mmHg 82%

    Tomorrow, 26 June, Tuesday

    Time Temperature Precipitation Wind Pressure Humidity
    00:00 +18°C° 0.1 mm 2 mps 725 mmHg 83%
    01:00 +18°C° 0.3 mm 2 mps 725 mmHg 85%
    02:00 +17°C° 0.3 mm 2 mps 725 mmHg 87%
    03:00 +17°C° 0.3 mm 2 mps 725 mmHg 89%
    04:00 +17°C° 0.2 mm 2 mps 725 mmHg 88%
    05:00 +17°C° 0.2 mm 2 mps 725 mmHg 88%
    06:00 +18°C° 0.2 mm 2 mps 725 mmHg 87%
    07:00 +20°C° 0 mm 3 mps 725 mmHg 79%
    08:00 +22°C° 0 mm 3 mps 725 mmHg 70%
    09:00 +25°C° 0 mm 3 mps 725 mmHg 62%
    10:00 +26°C° 0.1 mm 3 mps 725 mmHg 57%
    11:00 +28°C° 0.1 mm 3 mps 725 mmHg 52%
    12:00 +29°C° 0.1 mm 3 mps 725 mmHg 47%
    13:00 +29°C° 0 mm 3 mps 725 mmHg 47%
    14:00 +29°C° 0 mm 3 mps 725 mmHg 47%
    15:00 +29°C° 0 mm 3 mps 725 mmHg 46%
    16:00 +29°C° 0.1 mm 3 mps 726 mmHg 49%
    17:00 +29°C° 0.1 mm 2 mps 726 mmHg 51%
    18:00 +28°C° 0.1 mm 2 mps 726 mmHg 53%
    19:00 +27°C° 0 mm 2 mps 726 mmHg 57%
    20:00 +25°C° 0 mm 2 mps 726 mmHg 62%
    21:00 +23°C° 0 mm 1 mps 726 mmHg 66%
    22:00 +22°C° 0 mm 1 mps 726 mmHg 66%
    23:00 +22°C° 0 mm 1 mps 726 mmHg 66%

    Day after tomorrow, 27 June, Wednesday

    Time Temperature Precipitation Wind Pressure Humidity
    00:00 +21°C° 0 mm 1 mps 726 mmHg 66%
    01:00 +21°C° 0 mm 1 mps 726 mmHg 66%
    02:00 +20°C° 0 mm 1 mps 726 mmHg 67%
    03:00 +19°C° 0 mm 2 mps 726 mmHg 68%
    04:00 +19°C° 0.5 mm 2 mps 727 mmHg 73%
    05:00 +18°C° 0.5 mm 2 mps 727 mmHg 78%
    06:00 +18°C° 0.5 mm 3 mps 727 mmHg 84%
    07:00 +19°C° 0.7 mm 2 mps 727 mmHg 84%
    08:00 +19°C° 0.7 mm 2 mps 727 mmHg 84%
    09:00 +20°C° 0.7 mm 2 mps 727 mmHg 84%
    10:00 +23°C° 0 mm 2 mps 727 mmHg 74%
    11:00 +25°C° 0 mm 2 mps 727 mmHg 64%
    12:00 +28°C° 0 mm 2 mps 727 mmHg 54%
    13:00 +28°C° 0 mm 2 mps 727 mmHg 51%
    14:00 +29°C° 0 mm 2 mps 727 mmHg 49%
    15:00 +29°C° 0 mm 2 mps 726 mmHg 47%
    16:00 +29°C° 0 mm 2 mps 726 mmHg 48%
    17:00 +29°C° 0 mm 1 mps 726 mmHg 49%
    18:00 +29°C° 0 mm 1 mps 726 mmHg 51%
    19:00 +27°C° 0 mm 1 mps 726 mmHg 57%
    20:00 +25°C° 0 mm 2 mps 726 mmHg 64%
    21:00 +23°C° 0 mm 2 mps 726 mmHg 71%
    22:00 +21°C° 0 mm 2 mps 725 mmHg 73%
    23:00 +20°C° 0 mm 2 mps 725 mmHg 76%

    28 June, Thursday

    Time Temperature Precipitation Wind Pressure Humidity
    00:00 +20°C° 0 mm 2 mps 725 mmHg 78%
    01:00 +19°C° 0 mm 2 mps 725 mmHg 79%
    02:00 +19°C° 0 mm 2 mps 724 mmHg 79%
    03:00 +18°C° 0 mm 2 mps 724 mmHg 80%
    04:00 +19°C° 0 mm 2 mps 724 mmHg 78%
    05:00 +19°C° 0 mm 2 mps 724 mmHg 77%
    06:00 +20°C° 0 mm 2 mps 724 mmHg 75%
    07:00 +23°C° 0 mm 1 mps 724 mmHg 67%
    08:00 +26°C° 0 mm 1 mps 724 mmHg 59%
    09:00 +28°C° 0 mm 1 mps 724 mmHg 52%
    10:00 +30°C° 0 mm 1 mps 724 mmHg 48%
    11:00 +31°C° 0 mm 2 mps 724 mmHg 44%
    12:00 +32°C° 0 mm 2 mps 723 mmHg 41%
    13:00 +34°C° 0 mm 2 mps 723 mmHg 39%
    14:00 +34°C° 0 mm 2 mps 723 mmHg 38%
    15:00 +34°C° 0 mm 1 mps 723 mmHg 36%
    16:00 +33°C° 0 mm 1 mps 722 mmHg 41%
    17:00 +33°C° 0 mm 1 mps 722 mmHg 46%
    18:00 +32°C° 0 mm 1 mps 722 mmHg 51%
    19:00 +30°C° 0 mm 1 mps 722 mmHg 54%
    20:00 +28°C° 0 mm 1 mps 722 mmHg 58%
    21:00 +26°C° 0 mm 2 mps 722 mmHg 61%
    22:00 +24°C° 0 mm 2 mps 722 mmHg 64%
    23:00 +23°C° 0 mm 1 mps 722 mmHg 66%

    29 June, Friday

    Time Temperature Precipitation Wind Pressure Humidity
    00:00 +22°C° 0 mm 1 mps 722 mmHg 69%
    01:00 +21°C° 0 mm 2 mps 722 mmHg 69%
    02:00 +20°C° 0 mm 2 mps 722 mmHg 70%
    03:00 +20°C° 0 mm 2 mps 722 mmHg 71%
    04:00 +20°C° 0.1 mm 2 mps 722 mmHg 72%
    05:00 +20°C° 0.1 mm 2 mps 722 mmHg 73%
    06:00 +20°C° 0.1 mm 2 mps 722 mmHg 75%
    07:00 +23°C° 0 mm 2 mps 722 mmHg 68%
    08:00 +25°C° 0 mm 2 mps 723 mmHg 62%
    09:00 +27°C° 0 mm 2 mps 723 mmHg 55%
    10:00 +28°C° 0 mm 3 mps 723 mmHg 49%
    11:00 +29°C° 0 mm 4 mps 723 mmHg 44%
    12:00 +32°C° 0 mm 4 mps 722 mmHg 38%
    13:00 +32°C° 0.1 mm 4 mps 722 mmHg 39%
    14:00 +30°C° 0.1 mm 4 mps 722 mmHg 39%
    15:00 +30°C° 0.1 mm 3 mps 722 mmHg 40%
    16:00 +28°C° 1.1 mm 4 mps 722 mmHg 53%
    17:00 +25°C° 1.1 mm 4 mps 722 mmHg 65%
    18:00 +22°C° 1.1 mm 5 mps 722 mmHg 78%
    19:00 +20°C° 0.8 mm 4 mps 722 mmHg 82%
    20:00 +19°C° 0.8 mm 3 mps 722 mmHg 86%
    21:00 +18°C° 0.8 mm 2 mps 722 mmHg 90%
    22:00 +18°C° 0.2 mm 2 mps 722 mmHg 90%
    23:00 +17°C° 0.2 mm 2 mps 721 mmHg 89%

    30 June, Saturday

    Time Temperature Precipitation Wind Pressure Humidity
    00:00 +17°C° 0.2 mm 2 mps 721 mmHg 89%
    01:00 +17°C° 0.2 mm 3 mps 721 mmHg 88%
    02:00 +18°C° 0.2 mm 3 mps 720 mmHg 87%
    03:00 +18°C° 0.2 mm 3 mps 720 mmHg 86%
    04:00 +18°C° 0.6 mm 3 mps 720 mmHg 86%
    05:00 +18°C° 0.6 mm 2 mps 721 mmHg 86%
    06:00 +18°C° 0.6 mm 2 mps 721 mmHg 86%
    07:00 +20°C° 0.3 mm 3 mps 721 mmHg 81%
    08:00 +22°C° 0.3 mm 3 mps 721 mmHg 75%
    09:00 +24°C° 0.3 mm 3 mps 722 mmHg 70%
    10:00 +25°C° 1 mm 3 mps 722 mmHg 69%
    11:00 +26°C° 1 mm 4 mps 722 mmHg 67%
    12:00 +27°C° 1 mm 4 mps 722 mmHg 66%
    13:00 +27°C° 0.9 mm 4 mps 722 mmHg 66%
    14:00 +27°C° 0.9 mm 4 mps 723 mmHg 66%
    15:00 +27°C° 0.9 mm 4 mps 723 mmHg 66%
    16:00 +26°C° 1 mm 4 mps 723 mmHg 71%
    17:00 +25°C° 1 mm 4 mps 724 mmHg 77%
    18:00 +23°C° 1 mm 4 mps 724 mmHg 82%
    19:00 +21°C° 0.3 mm 4 mps 725 mmHg 86%
    20:00 +19°C° 0.3 mm 3 mps 725 mmHg 90%
    21:00 +18°C° 0.3 mm 3 mps 726 mmHg 94%
    22:00 +17°C° 0 mm 3 mps 726 mmHg 95%
    23:00 +16°C° 0 mm 3 mps 726 mmHg 95%
    Show more